Location: ??????
(41.3747°N, 22.5491°E)
Time: 14:04:53
(UTC+00:00)

USA 238 - Pass Details

Date: 01 December 2020
Orbit: 997 x 1215 km, 63.4° (Epoch: 11 January)

Event Time Altitude Azimuth Distance (km) Brightness Sun altitude
Rises 17:01:11 0° 212° (SSW) 3,709 7.2 -22.0°
Reaches altitude 10° 17:03:43 10° 212° (SSW) 2,773 6.4 -22.4°
Maximum altitude 17:10:14 88° 124° (SE) 1,036 3.5 -23.6°
Enters shadow 17:13:10 37° 35° (NE) 1,569 4.2 -24.2°
